User: anonymous   Login
Location: Unspecified
(0.0000°N, 0.0000°E)
Time: 05:43:41
(UTC+02:00)
Language:

Ariane 42L R/B - Orbit

View from above orbital plane
View from above orbital plane
View from above satellite
View from above satellite

Ground track
Ground track

The orbit data is extracted from the following two-line orbital elements,

1 26299U 00020B   16179.04299095  .00003554  00000-0  64795-3 0  9993
2 26299   7.4900 249.9894 5963936 348.7889   2.3578  4.10071420204485
Epoch (UTC): 27 June 2016 01:01:54
Eccentricity: 0.5963936
inclination: 7.4900°
perigee height: 276 km
apogee height: 19942 km
right ascension of ascending node: 249.9894°
argument of perigee: 348.7889°
revolutions per day: 4.10071420
mean anomaly at epoch: 2.3578°
orbit number at epoch: 20448

The dashed part of the orbit path shows where the satellite is in the earth's shadow,  

DLR